period_start,C,m1,H,J0,J1,J2,J3,J4,J5,JA,JB,JC,JD,JJ,JK,JN,#
2016-12-01 00:01:50,0.21,0.93,0.00,18.77,23.45,27.22,14.93,48.98,1021.44,2042.00,3131.32,2902.93,3300.71,600.19,607.69,4.79,0000 0000 0000 0000 000000
2016-12-01 00:06:51,0.20,0.94,0.00,18.77,23.44,27.23,14.92,48.96,1021.39,2042.00,3127.27,2900.10,3297.50,600.12,607.59,4.84,0000 0000 0000 0000 000000
2016-12-01 00:11:52,0.17,0.95,0.00,18.77,23.42,27.22,14.98,48.98,1021.38,2042.00,3123.48,2897.49,3294.71,600.47,607.97,4.89,0000 0000 0000 0000 000000
2016-12-01 00:16:53,0.18,0.96,0.00,18.76,23.42,27.22,14.93,48.90,1021.21,2042.00,3119.87,2894.96,3291.95,600.12,607.50,4.94,0000 0000 0000 0000 000000
2016-12-01 00:21:55,0.18,0.97,0.00,18.75,23.42,27.16,14.85,48.83,1021.21,2042.00,3116.08,2892.38,3289.20,599.98,607.44,4.99,0000 0000 0000 0000 000000
2016-12-01 00:26:56,0.18,0.98,0.00,18.72,23.42,27.17,14.90,48.86,1021.07,2042.00,3112.45,2889.79,3286.43,599.98,607.36,5.04,0000 0000 0000 0000 000000
2016-12-01 00:31:58,0.18,0.99,0.00,18.73,23.41,27.19,14.91,48.98,1021.11,2042.00,3108.90,2887.26,3283.45,600.09,607.52,5.09,0000 0000 0000 0000 000000
2016-12-01 00:36:59,0.18,1.00,0.00,18.72,23.40,27.18,14.86,48.91,1021.08,2042.02,3105.36,2884.73,3280.61,599.74,607.33,5.14,0000 0000 0000 0000 000000
2016-12-01 00:42:00,0.17,1.01,0.00,18.71,23.40,27.18,14.93,48.98,1021.04,2042.00,3101.90,2882.24,3277.77,599.92,607.46,5.19,0000 0000 0000 0000 000000
2016-12-01 00:47:01,0.17,1.02,0.00,18.71,23.39,27.17,14.90,48.88,1021.02,2042.00,3098.45,2879.87,3275.13,599.95,607.37,5.25,0000 0000 0000 0000 000000
2016-12-01 00:52:03,0.19,1.03,0.00,18.69,23.37,27.19,14.88,48.95,1021.02,2042.01,3094.85,2877.34,3271.97,599.83,607.36,5.30,0000 0000 0000 0000 000000
2016-12-01 00:57:04,0.21,1.04,0.00,18.69,23.37,27.13,14.81,48.91,1021.02,2042.00,3090.75,2874.35,3268.63,599.79,607.25,5.35,0000 0000 0000 0000 000000
2016-12-01 01:02:05,0.20,1.05,0.00,18.66,23.37,27.10,14.95,48.91,1021.01,2042.00,3086.77,2871.52,3265.53,600.02,607.52,5.40,0000 0000 0000 0000 000000
2016-12-01 01:07:07,0.19,1.06,0.00,18.67,23.35,27.10,14.91,48.93,1021.02,2042.01,3082.97,2868.82,3262.68,600.06,607.56,5.45,0000 0000 0000 0000 000000
2016-12-01 01:12:08,0.20,1.07,0.00,18.66,23.35,27.08,14.89,48.87,1021.01,2042.00,3079.14,2866.10,3259.69,600.01,607.52,5.50,0000 0000 0000 0000 000000
2016-12-01 01:17:09,0.20,1.08,0.00,18.64,23.33,27.07,14.86,48.88,1021.01,2042.02,3075.17,2863.27,3256.71,600.02,607.49,5.55,0000 0000 0000 0000 000000
2016-12-01 01:22:11,0.21,1.09,0.00,18.62,23.32,27.07,14.94,48.91,1021.01,2042.03,3071.14,2860.40,3253.55,599.92,607.48,5.60,0000 0000 0000 0000 000000
2016-12-01 01:27:12,0.21,1.10,0.00,18.63,23.30,27.06,14.88,48.87,1020.98,2042.03,3067.10,2857.47,3250.26,600.10,607.66,5.65,0000 0000 0000 0000 000000
2016-12-01 01:32:13,0.19,1.11,0.00,18.61,23.29,27.01,14.89,48.89,1021.01,2042.05,3063.25,2854.68,3247.11,599.78,607.39,5.70,0000 0000 0000 0000 000000
2016-12-01 01:37:15,0.20,1.12,0.00,18.61,23.28,27.01,14.94,48.87,1021.00,2042.06,3059.67,2852.10,3244.22,599.97,607.59,5.75,0000 0000 0000 0000 000000
2016-12-01 01:42:16,0.11,1.13,0.00,18.60,23.27,26.97,14.89,48.93,1020.97,2042.10,3056.85,2850.23,3242.30,600.33,607.91,5.80,0000 0000 0000 0000 000000
2016-12-01 01:47:17,0.10,1.13,0.00,18.61,23.27,26.95,14.85,48.78,1020.93,2042.35,3055.29,2849.05,3241.00,599.76,607.30,5.85,0000 0000 0000 0000 000000
2016-12-01 01:52:18,0.12,1.14,0.00,18.59,23.26,26.99,14.93,48.89,1020.86,2042.49,3053.53,2847.83,3239.63,599.68,607.30,5.90,0000 0000 0000 0000 000000
2016-12-01 01:57:20,0.09,1.14,0.00,18.57,23.25,26.97,14.85,48.82,1020.78,2042.53,3051.53,2846.46,3237.96,599.86,607.46,5.95,0000 0000 0000 0000 000000
2016-12-01 02:02:21,0.09,1.15,0.00,18.58,23.24,27.00,14.84,48.97,1020.59,2042.35,3049.37,2844.88,3236.33,599.87,607.27,6.00,0000 0000 0000 0000 000000
2016-12-01 02:07:22,0.14,1.15,0.00,18.57,23.24,26.95,14.87,48.83,1020.58,2042.42,3047.13,2843.38,3234.64,599.84,607.30,6.05,0000 0000 0000 0000 000000
2016-12-01 02:12:23,0.13,1.16,0.00,18.56,23.24,26.99,14.85,48.90,1020.56,2042.57,3045.00,2841.90,3233.04,599.79,607.31,6.10,0000 0000 0000 0000 000000
2016-12-01 02:17:25,0.13,1.17,0.00,18.54,23.23,27.01,14.87,48.95,1020.55,2042.90,3042.76,2840.46,3231.42,599.92,607.43,6.15,0000 0000 0000 0000 000000
2016-12-01 02:22:26,0.14,1.17,0.00,18.53,23.22,26.95,14.88,48.98,1020.53,2042.96,3040.37,2838.62,3229.29,599.93,607.48,6.20,0000 0000 0000 0000 000000
2016-12-01 02:27:27,0.18,1.18,0.00,18.54,23.22,26.96,14.89,48.90,1020.53,2042.95,3037.01,2836.27,3226.67,600.12,607.50,6.25,0000 0000 0000 0000 000000
2016-12-01 02:32:29,0.18,1.19,0.00,18.54,23.21,26.96,14.92,48.98,1020.52,2042.97,3033.43,2833.77,3223.98,600.42,607.75,6.30,0000 0000 0000 0000 000000
2016-12-01 02:37:30,0.18,1.20,0.00,18.51,23.20,26.99,14.87,48.90,1020.52,2042.94,3029.89,2831.25,3221.18,600.06,607.48,6.35,0000 0000 0000 0000 000000
2016-12-01 02:42:31,0.19,1.21,0.00,18.48,23.19,26.98,14.93,48.95,1020.52,2042.95,3026.34,2828.65,3218.26,600.08,607.69,6.40,0000 0000 0000 0000 000000
2016-12-01 02:47:33,0.19,1.22,0.00,18.47,23.18,26.96,14.95,49.02,1020.52,2042.98,3022.92,2826.13,3215.33,600.03,607.63,6.45,0000 0000 0000 0000 000000
2016-12-01 02:52:35,0.19,1.23,0.00,18.48,23.17,26.91,14.83,48.82,1020.52,2042.96,3019.36,2823.48,3212.42,599.92,607.58,6.50,0000 0000 0000 0000 000000
2016-12-01 02:57:36,0.18,1.24,0.00,18.47,23.16,26.92,14.86,48.94,1020.52,2042.98,3015.86,2821.05,3209.71,599.90,607.52,6.55,0000 0000 0000 0000 000000
2016-12-01 03:02:37,0.15,1.25,0.00,18.47,23.14,26.87,14.93,49.04,1020.52,2042.98,3012.73,2818.77,3207.25,600.20,607.83,6.60,0000 0000 0000 0000 000000
2016-12-01 03:07:38,0.14,1.25,0.00,18.47,23.14,26.89,14.93,48.92,1020.52,2042.96,3009.97,2816.75,3205.04,600.19,607.82,6.65,0000 0000 0000 0000 000000
2016-12-01 03:12:39,0.12,1.26,0.00,18.45,23.12,26.88,14.90,48.98,1020.52,2042.99,3007.55,2815.07,3203.07,599.99,607.56,6.70,0000 0000 0000 0000 000000
2016-12-01 03:17:40,0.12,1.27,0.00,18.43,23.12,26.84,14.95,48.92,1020.52,2042.99,3005.17,2813.44,3201.18,600.21,607.91,6.75,0000 0000 0000 0000 000000
2016-12-01 03:22:42,0.12,1.27,0.00,18.42,23.10,26.83,14.88,48.87,1020.52,2042.99,3002.88,2811.78,3199.49,600.04,607.76,6.80,0000 0000 0000 0000 000000
2016-12-01 03:27:43,0.11,1.28,0.00,18.42,23.09,26.84,14.85,48.91,1020.52,2042.99,3000.62,2810.22,3197.81,600.12,607.88,6.85,0000 0000 0000 0000 000000
2016-12-01 03:32:44,0.11,1.28,0.00,18.41,23.08,26.85,14.94,48.89,1020.52,2042.99,2998.47,2808.72,3196.23,599.96,607.66,6.90,0000 0000 0000 0000 000000
2016-12-01 03:37:45,0.10,1.29,0.00,18.39,23.07,26.80,14.93,48.97,1020.52,2043.00,2996.36,2807.38,3194.60,600.01,607.78,6.95,0000 0000 0000 0000 000000
2016-12-01 03:42:46,0.11,1.30,0.00,18.40,23.07,26.80,14.96,48.92,1020.52,2043.02,2994.32,2805.80,3192.88,600.07,607.83,7.00,0000 0000 0000 0000 000000
2016-12-01 03:47:48,0.10,1.30,0.00,18.40,23.05,26.80,14.89,48.96,1020.52,2043.01,2992.39,2804.46,3191.41,600.07,607.78,7.05,0000 0000 0000 0000 000000
2016-12-01 03:52:49,0.09,1.31,0.00,18.39,23.04,26.78,14.92,48.88,1020.51,2043.01,2990.51,2803.15,3189.91,600.19,607.88,7.10,0000 0000 0000 0000 000000
2016-12-01 03:57:50,0.08,1.31,0.00,18.38,23.04,26.78,14.84,48.92,1020.50,2043.04,2988.78,2802.01,3188.75,599.87,607.64,7.15,0000 0000 0000 0000 000000
2016-12-01 04:02:52,0.08,1.32,0.00,18.38,23.03,26.77,14.95,48.92,1020.51,2043.04,2987.38,2800.92,3187.51,600.10,607.90,7.20,0000 0000 0000 0000 000000
2016-12-01 04:07:53,0.07,1.32,0.00,18.35,23.02,26.79,14.91,48.96,1020.45,2043.04,2985.81,2799.89,3186.36,599.98,607.83,7.25,0000 0000 0000 0000 000000
2016-12-01 04:12:54,0.07,1.32,0.00,18.37,23.02,26.79,14.91,48.95,1020.31,2043.06,2984.45,2798.94,3185.31,600.11,607.72,7.30,0000 0000 0000 0000 000000
2016-12-01 04:17:56,0.07,1.33,0.00,18.36,23.02,26.80,14.96,49.02,1020.31,2043.15,2983.21,2798.01,3184.13,599.86,607.62,7.35,0000 0000 0000 0000 000000
2016-12-01 04:22:57,0.08,1.33,0.00,18.35,23.00,26.81,14.85,49.01,1020.29,2043.26,2982.03,2797.12,3183.27,599.70,607.43,7.40,0000 0000 0000 0000 000000
2016-12-01 04:27:59,0.05,1.34,0.00,18.36,23.00,26.78,14.92,48.97,1020.35,2043.26,2980.86,2796.35,3182.26,600.32,608.20,7.45,0000 0000 0000 0000 000000
2016-12-01 04:33:00,0.08,1.34,0.00,18.35,22.99,26.77,14.89,48.92,1020.32,2043.31,2979.71,2795.54,3181.36,600.16,607.89,7.50,0000 0000 0000 0000 000000
2016-12-01 04:38:01,0.08,1.34,0.00,18.35,22.99,26.76,14.88,49.08,1020.14,2043.51,2978.51,2794.74,3180.44,599.94,607.57,7.56,0000 0000 0000 0000 000000
2016-12-01 04:43:03,0.06,1.35,0.00,18.33,22.98,26.74,14.85,48.96,1020.13,2043.52,2977.26,2793.85,3179.31,599.81,607.46,7.61,0000 0000 0000 0000 000000
2016-12-01 04:48:04,0.07,1.35,0.00,18.33,22.97,26.73,14.85,49.09,1020.11,2043.70,2976.08,2792.99,3178.40,599.61,607.24,7.66,0000 0000 0000 0000 000000
2016-12-01 04:53:05,0.07,1.35,0.00,18.32,22.97,26.72,14.94,49.05,1020.10,2043.83,2974.90,2792.13,3177.54,600.22,607.85,7.71,0000 0000 0000 0000 000000
2016-12-01 04:58:07,0.06,1.36,0.00,18.33,22.97,26.75,14.92,49.07,1020.11,2043.79,2973.72,2791.32,3176.65,600.14,607.81,7.76,0000 0000 0000 0000 000000
2016-12-01 05:03:08,0.06,1.36,0.00,18.33,22.96,26.77,14.88,49.03,1020.06,2043.89,2972.66,2790.65,3175.84,599.92,607.55,7.81,0000 0000 0000 0000 000000
2016-12-01 05:08:09,0.05,1.36,0.00,18.33,22.95,26.71,14.84,48.99,1020.05,2043.96,2971.70,2789.94,3174.92,600.05,607.65,7.86,0000 0000 0000 0000 000000
2016-12-01 05:13:10,0.05,1.37,0.00,18.32,22.94,26.71,14.78,49.04,1020.07,2043.94,2970.57,2789.11,3174.06,599.45,607.36,7.91,0000 0000 0000 0000 000000
2016-12-01 05:18:12,0.06,1.37,0.00,18.30,22.94,26.71,14.82,49.03,1020.11,2043.94,2969.45,2788.31,3173.17,600.09,607.86,7.96,0000 0000 0000 0000 000000
2016-12-01 05:23:13,0.05,1.37,0.00,18.32,22.93,26.68,14.94,49.20,1020.12,2043.91,2968.27,2787.49,3172.28,600.16,607.95,8.01,0000 0000 0000 0000 000000
2016-12-01 05:28:14,0.06,1.37,0.00,18.31,22.92,26.70,14.91,49.16,1020.09,2043.93,2967.20,2786.80,3171.51,600.23,607.88,8.06,0000 0000 0000 0000 000000
2016-12-01 05:33:15,0.05,1.38,0.00,18.32,22.92,26.71,14.94,49.19,1020.07,2043.96,2966.10,2786.04,3170.88,600.34,608.05,8.11,0000 0000 0000 0000 000000
2016-12-01 05:38:17,0.05,1.38,0.00,18.32,22.92,26.73,14.98,49.13,1020.06,2043.97,2965.21,2785.65,3170.10,600.35,608.01,8.16,0000 0000 0000 0000 000000
2016-12-01 05:43:18,0.02,1.38,0.00,18.31,22.92,26.68,14.90,49.20,1020.08,2043.97,2964.64,2785.03,3169.88,599.93,607.64,8.21,0000 0000 0000 0000 000000
2016-12-01 05:48:19,0.04,1.38,0.00,18.29,22.92,26.70,14.96,49.23,1020.09,2043.98,2963.94,2784.66,3169.06,600.29,607.98,8.26,0000 0000 0000 0000 000000
2016-12-01 05:53:20,0.03,1.39,0.00,18.28,22.92,26.69,14.90,49.30,1020.09,2043.97,2963.15,2784.02,3168.62,599.63,607.53,8.31,0000 0000 0000 0000 000000
2016-12-01 05:58:22,0.05,1.39,0.00,18.28,22.92,26.71,14.87,49.38,1020.13,2043.97,2962.39,2783.56,3167.97,599.93,607.70,8.36,0000 0000 0000 0000 000000
2016-12-01 06:03:23,0.03,1.39,0.00,18.28,22.92,26.68,14.97,49.27,1020.12,2043.97,2961.62,2782.98,3167.15,600.41,608.22,8.41,0000 0000 0000 0000 000000
2016-12-01 06:08:24,0.05,1.39,0.00,18.27,22.92,26.70,14.93,49.38,1020.15,2043.98,2960.78,2782.29,3166.52,600.24,608.13,8.46,0000 0000 0000 0000 000000
2016-12-01 06:13:26,0.04,1.39,0.00,18.30,22.92,26.74,14.86,49.30,1020.20,2043.96,2959.80,2781.61,3165.73,600.03,607.76,8.51,0000 0000 0000 0000 000000
2016-12-01 06:18:27,0.03,1.40,0.00,18.30,22.92,26.73,14.85,49.31,1020.23,2043.96,2958.97,2781.00,3164.99,599.72,607.60,8.56,0000 0000 0000 0000 000000
2016-12-01 06:23:28,0.06,1.40,0.00,18.31,22.94,26.71,14.90,49.33,1020.38,2043.97,2958.08,2780.34,3164.24,600.35,608.20,8.61,0000 0000 0000 0000 000000
2016-12-01 06:28:30,0.02,1.40,0.00,18.30,22.94,26.72,14.92,49.29,1020.44,2043.97,2957.18,2779.98,3163.83,600.17,607.99,8.66,0000 0000 0000 0000 000000
2016-12-01 06:33:31,0.05,1.40,0.00,18.29,22.94,26.75,14.91,49.40,1020.48,2043.99,2956.62,2779.22,3163.04,599.96,607.92,8.71,0000 0000 0000 0000 000000
2016-12-01 06:38:32,0.03,1.41,0.00,18.30,22.95,26.73,14.87,49.30,1020.50,2043.98,2955.78,2778.85,3162.39,599.74,607.84,8.76,0000 0000 0000 0000 000000
2016-12-01 06:43:33,0.05,1.41,0.00,18.32,22.95,26.74,14.87,49.29,1020.49,2043.98,2955.05,2778.06,3161.51,599.61,607.51,8.81,0000 0000 0000 0000 000000
2016-12-01 06:48:34,0.04,1.41,0.00,18.29,22.95,26.79,14.95,49.34,1020.42,2043.94,2954.18,2777.47,3160.90,600.30,608.14,8.86,0000 0000 0000 0000 000000
2016-12-01 06:53:36,0.04,1.41,0.00,18.30,22.96,26.77,14.93,49.15,1020.37,2043.96,2953.40,2776.96,3160.07,600.05,607.86,8.91,0000 0000 0000 0000 000000
2016-12-01 06:58:37,0.05,1.42,0.00,18.29,22.96,26.79,14.88,49.28,1020.39,2043.95,2952.41,2776.16,3159.45,599.93,607.81,8.96,0000 0000 0000 0000 000000
2016-12-01 07:03:38,0.05,1.42,0.00,18.29,22.96,26.81,14.91,49.15,1020.43,2043.86,2951.33,2775.38,3158.24,600.08,608.03,9.01,0000 0000 0000 0000 000000
2016-12-01 07:08:40,0.07,1.42,0.00,18.31,22.95,26.76,14.89,49.17,1020.32,2043.84,2949.94,2774.40,3157.20,600.15,608.07,9.06,0000 0000 0000 0000 000000
2016-12-01 07:13:41,0.07,1.43,0.00,18.31,22.95,26.75,14.90,49.15,1020.11,2043.74,2948.55,2773.46,3156.08,599.96,607.66,9.11,0000 0000 0000 0000 000000
2016-12-01 07:18:43,0.06,1.43,0.00,18.30,22.94,26.74,14.92,49.13,1020.06,2043.65,2947.05,2772.36,3154.78,600.07,607.86,9.16,0000 0000 0000 0000 000000
2016-12-01 07:23:44,0.10,1.43,0.00,18.30,22.94,26.72,14.94,49.23,1020.04,2043.75,2945.56,2771.34,3153.75,600.51,608.28,9.21,0000 0000 0000 0000 000000
2016-12-01 07:28:45,0.07,1.44,0.00,18.30,22.92,26.71,14.91,49.21,1020.04,2043.80,2944.13,2770.38,3152.70,600.14,607.83,9.26,0000 0000 0000 0000 000000
2016-12-01 07:33:46,0.09,1.44,0.00,18.31,22.92,26.71,14.87,49.15,1020.04,2043.89,2942.78,2769.37,3151.54,600.04,607.71,9.31,0000 0000 0000 0000 000000
2016-12-01 07:38:48,0.07,1.45,0.00,18.28,22.92,26.69,14.87,49.28,1020.05,2043.95,2941.44,2768.44,3150.50,600.03,607.72,9.36,0000 0000 0000 0000 000000
2016-12-01 07:43:49,0.07,1.45,0.00,18.29,22.91,26.67,14.93,49.27,1020.04,2043.96,2939.95,2767.42,3149.29,600.16,607.92,9.41,0000 0000 0000 0000 000000
2016-12-01 07:48:50,0.07,1.46,0.00,18.29,22.90,26.69,14.84,49.33,1020.04,2043.95,2938.65,2766.38,3148.05,599.72,607.49,9.46,0000 0000 0000 0000 000000
2016-12-01 07:53:52,0.08,1.46,0.00,18.30,22.89,26.68,14.90,49.29,1020.04,2043.95,2937.31,2765.35,3146.75,600.18,607.92,9.51,0000 0000 0000 0000 000000
2016-12-01 07:58:53,0.08,1.46,0.00,18.30,22.89,26.69,14.86,49.32,1020.04,2043.95,2935.88,2764.25,3145.37,599.54,607.24,9.56,0000 0000 0000 0000 000000
2016-12-01 08:03:55,0.08,1.47,0.00,18.30,22.89,26.66,14.83,49.14,1020.04,2043.96,2934.29,2763.13,3144.21,599.81,607.54,9.61,0000 0000 0000 0000 000000
2016-12-01 08:08:56,0.08,1.47,0.00,18.31,22.89,26.66,14.86,49.19,1020.04,2043.97,2932.67,2762.02,3142.97,599.89,607.53,9.66,0000 0000 0000 0000 000000
2016-12-01 08:13:57,0.08,1.48,0.00,18.31,22.88,26.67,14.89,49.20,1020.04,2043.98,2931.22,2760.93,3141.77,599.95,607.62,9.71,0000 0000 0000 0000 000000
2016-12-01 08:18:59,0.09,1.48,0.00,18.29,22.87,26.68,14.89,49.22,1020.04,2043.98,2929.65,2759.87,3140.58,599.85,607.54,9.76,0000 0000 0000 0000 000000
2016-12-01 08:24:00,0.10,1.49,0.00,18.31,22.87,26.68,14.91,49.23,1020.04,2043.98,2928.12,2758.59,3138.99,600.03,607.60,9.81,0000 0000 0000 0000 000000
2016-12-01 08:29:01,0.11,1.49,0.00,18.30,22.87,26.66,14.90,49.41,1020.04,2043.98,2926.13,2757.08,3137.15,599.91,607.59,9.86,0000 0000 0000 0000 000000
2016-12-01 08:34:02,0.11,1.50,0.00,18.28,22.87,26.68,14.87,49.38,1020.04,2043.99,2924.15,2755.66,3135.64,599.81,607.54,9.92,0000 0000 0000 0000 000000
2016-12-01 08:39:04,0.08,1.50,0.00,18.29,22.87,26.68,14.85,49.23,1020.04,2043.99,2922.46,2754.47,3134.55,599.86,607.63,9.97,0000 0000 0000 0000 000000
2016-12-01 08:44:05,0.10,1.51,0.00,18.31,22.86,26.69,14.90,49.27,1020.04,2043.99,2920.72,2753.19,3133.00,600.26,607.96,10.02,0000 0000 0000 0000 000000
2016-12-01 08:49:06,0.10,1.51,0.00,18.32,22.85,26.68,14.83,49.18,1020.04,2043.98,2918.84,2751.88,3131.53,599.97,607.62,10.07,0000 0000 0000 0000 000000
2016-12-01 08:54:07,0.10,1.52,0.00,18.30,22.85,26.67,14.84,49.28,1020.04,2043.99,2917.05,2750.69,3129.95,599.88,607.53,10.12,0000 0000 0000 0000 000000
2016-12-01 08:59:08,0.11,1.52,0.00,18.28,22.84,26.66,14.90,49.27,1020.04,2043.99,2915.16,2749.24,3128.02,599.87,607.51,10.17,0000 0000 0000 0000 000000
2016-12-01 09:04:10,0.11,1.53,0.00,18.27,22.84,26.69,14.90,49.33,1020.04,2043.99,2913.15,2747.71,3126.35,600.24,608.10,10.22,0000 0000 0000 0000 000000
2016-12-01 09:09:11,0.10,1.53,0.00,18.29,22.84,26.63,14.92,49.33,1020.04,2043.99,2911.33,2746.32,3124.70,599.92,607.62,10.27,0000 0000 0000 0000 000000
2016-12-01 09:14:12,0.10,1.54,0.00,18.28,22.84,26.66,14.89,49.10,1020.04,2043.99,2909.41,2744.89,3123.16,599.97,607.76,10.32,0000 0000 0000 0000 000000
2016-12-01 09:19:14,0.11,1.54,0.00,18.29,22.84,26.65,14.85,49.15,1020.04,2043.98,2907.52,2743.50,3121.49,599.54,607.26,10.37,0000 0000 0000 0000 000000
2016-12-01 09:24:15,0.10,1.55,0.00,18.28,22.83,26.64,14.87,49.18,1020.04,2043.99,2905.68,2742.13,3119.83,600.11,607.79,10.42,0000 0000 0000 0000 000000
2016-12-01 09:29:16,0.11,1.56,0.00,18.27,22.82,26.63,14.90,49.24,1020.04,2043.98,2903.74,2740.67,3118.23,600.10,607.84,10.47,0000 0000 0000 0000 000000
2016-12-01 09:34:18,0.11,1.56,0.00,18.26,22.82,26.65,14.91,49.18,1020.03,2043.99,2901.80,2739.23,3116.58,600.18,608.03,10.52,0000 0000 0000 0000 000000
2016-12-01 09:39:19,0.13,1.57,0.00,18.24,22.82,26.65,14.92,49.14,1020.03,2043.98,2899.76,2737.63,3114.73,600.41,608.22,10.57,0000 0000 0000 0000 000000
2016-12-01 09:44:20,0.11,1.57,0.00,18.27,22.82,26.65,14.86,49.13,1020.03,2043.98,2897.57,2736.08,3112.86,599.95,607.71,10.62,0000 0000 0000 0000 000000
2016-12-01 09:49:22,0.12,1.58,0.00,18.25,22.80,26.61,14.91,49.11,1020.02,2043.98,2895.53,2734.54,3111.17,599.92,607.64,10.67,0000 0000 0000 0000 000000
2016-12-01 09:54:23,0.12,1.59,0.00,18.24,22.80,26.61,14.98,49.10,1020.01,2043.99,2893.40,2732.92,3109.39,600.36,608.16,10.72,0000 0000 0000 0000 000000
2016-12-01 09:59:24,0.12,1.59,0.00,18.24,22.79,26.62,14.89,49.13,1020.01,2043.99,2891.24,2731.41,3107.63,600.12,607.94,10.77,0000 0000 0000 0000 000000
2016-12-01 10:04:25,0.12,1.60,0.00,18.22,22.79,26.64,14.92,49.20,1020.02,2043.99,2889.04,2729.78,3105.90,599.98,607.84,10.82,0000 0000 0000 0000 000000
2016-12-01 10:09:27,0.11,1.60,0.00,18.24,22.79,26.61,14.91,49.18,1020.00,2043.99,2886.90,2728.26,3104.22,600.35,608.19,10.87,0000 0000 0000 0000 000000
2016-12-01 10:14:27,0.13,1.61,0.00,18.23,22.78,26.61,14.87,49.18,1019.94,2043.99,2884.75,2726.62,3102.39,599.97,607.77,10.92,0000 0000 0000 0000 000000
2016-12-01 10:19:29,0.09,1.62,0.00,18.20,22.78,26.61,14.87,49.19,1019.87,2043.99,2883.04,2725.33,3100.83,599.94,607.77,10.97,0000 0000 0000 0000 000000
2016-12-01 10:24:30,0.09,1.62,0.00,18.23,22.78,26.61,14.87,49.24,1019.80,2043.99,2881.47,2724.13,3099.49,600.07,607.71,11.02,0000 0000 0000 0000 000000
2016-12-01 10:29:31,0.11,1.63,0.00,18.21,22.78,26.62,14.88,49.23,1019.90,2043.99,2879.81,2722.78,3097.79,599.88,607.63,11.07,0000 0000 0000 0000 000000
2016-12-01 10:34:32,0.12,1.63,0.00,18.20,22.79,26.61,14.88,49.27,1019.96,2043.99,2878.01,2721.23,3095.86,599.52,607.40,11.12,0000 0000 0000 0000 000000
2016-12-01 10:39:33,0.13,1.64,0.00,18.21,22.79,26.61,14.89,49.13,1019.90,2043.99,2875.76,2719.59,3093.96,599.91,607.86,11.17,0000 0000 0000 0000 000000
2016-12-01 10:44:35,0.13,1.65,0.00,18.21,22.79,26.62,14.94,49.23,1019.88,2043.99,2873.58,2717.88,3092.03,600.19,607.91,11.22,0000 0000 0000 0000 000000
2016-12-01 10:49:36,0.16,1.65,0.00,18.20,22.79,26.60,14.84,49.17,1019.85,2043.99,2871.04,2715.92,3089.74,600.05,607.82,11.27,0000 0000 0000 0000 000000
2016-12-01 10:54:37,0.16,1.66,0.00,18.19,22.79,26.63,14.89,49.24,1019.89,2043.99,2868.22,2713.77,3087.32,599.80,607.64,11.32,0000 0000 0000 0000 000000
2016-12-01 10:59:39,0.16,1.67,0.00,18.18,22.78,26.62,14.85,49.10,1019.83,2043.99,2865.42,2711.68,3084.95,599.80,607.67,11.37,0000 0000 0000 0000 000000
2016-12-01 11:04:40,0.18,1.68,0.00,18.19,22.77,26.62,14.88,49.04,1019.84,2043.99,2862.40,2709.36,3082.34,600.10,607.85,11.42,0000 0000 0000 0000 000000
2016-12-01 11:09:41,0.19,1.69,0.00,18.18,22.77,26.61,14.88,49.05,1019.86,2043.99,2859.20,2706.96,3079.48,599.76,607.61,11.47,0000 0000 0000 0000 000000
2016-12-01 11:14:42,0.19,1.70,0.00,18.16,22.77,26.61,14.93,49.08,1019.82,2043.99,2856.03,2704.51,3076.71,600.28,608.13,11.52,0000 0000 0000 0000 000000
2016-12-01 11:19:43,0.19,1.71,0.00,18.16,22.77,26.64,14.92,49.19,1019.69,2043.99,2852.86,2702.13,3073.98,599.69,607.53,11.57,0000 0000 0000 0000 000000
2016-12-01 11:24:45,0.18,1.72,0.00,18.16,22.76,26.63,14.92,49.13,1019.63,2043.99,2849.81,2699.74,3071.21,600.12,607.86,11.62,0000 0000 0000 0000 000000
2016-12-01 11:29:46,0.19,1.73,0.00,18.15,22.74,26.58,14.85,49.02,1019.62,2043.99,2846.59,2697.29,3068.42,599.74,607.46,11.67,0000 0000 0000 0000 000000
2016-12-01 11:34:47,0.20,1.74,0.00,18.16,22.74,26.55,14.89,49.02,1019.61,2043.99,2843.30,2694.82,3065.61,600.17,607.91,11.72,0000 0000 0000 0000 000000
2016-12-01 11:39:48,0.19,1.75,0.00,18.17,22.73,26.55,14.95,49.19,1019.57,2043.99,2839.97,2692.34,3062.83,599.91,607.64,11.77,0000 0000 0000 0000 000000
2016-12-01 11:44:49,0.19,1.76,0.00,18.16,22.72,26.58,14.91,49.19,1019.57,2043.99,2836.72,2689.87,3060.04,599.89,607.64,11.82,0000 0000 0000 0000 000000
2016-12-01 11:49:51,0.19,1.77,0.00,18.14,22.72,26.55,14.89,49.24,1019.56,2043.99,2833.47,2687.45,3057.29,599.89,607.66,11.87,0000 0000 0000 0000 000000
2016-12-01 11:54:52,0.19,1.78,0.00,18.14,22.71,26.49,14.91,49.24,1019.55,2043.99,2830.25,2685.07,3054.51,599.89,607.59,11.92,0000 0000 0000 0000 000000
2016-12-01 11:59:53,0.21,1.79,0.00,18.13,22.70,26.53,14.92,49.18,1019.55,2043.99,2826.90,2682.48,3051.57,600.42,608.14,11.97,0000 0000 0000 0000 000000
2016-12-01 12:04:55,0.19,1.80,0.00,18.14,22.69,26.51,14.91,49.21,1019.55,2044.00,2823.69,2680.06,3048.74,600.22,607.99,12.02,0000 0000 0000 0000 000000
2016-12-01 12:09:56,0.19,1.81,0.00,18.13,22.69,26.49,14.96,49.19,1019.55,2044.00,2820.42,2677.54,3045.96,600.23,608.02,12.07,0000 0000 0000 0000 000000
2016-12-01 12:14:57,0.19,1.82,0.00,18.10,22.69,26.50,14.90,49.23,1019.55,2044.02,2817.19,2675.19,3043.23,600.15,607.96,12.12,0000 0000 0000 0000 000000
2016-12-01 12:19:58,0.20,1.83,0.00,18.11,22.69,26.48,14.88,49.25,1019.55,2044.01,2813.98,2672.60,3040.26,599.81,607.59,12.17,0000 0000 0000 0000 000000
2016-12-01 12:24:59,0.22,1.84,0.00,18.09,22.68,26.48,14.88,49.27,1019.55,2044.01,2810.44,2669.80,3036.96,599.86,607.62,12.22,0000 0000 0000 0000 000000
2016-12-01 12:30:01,0.22,1.85,0.00,18.11,22.67,26.50,14.85,49.31,1019.55,2044.01,2806.92,2667.09,3033.77,599.66,607.40,12.27,0000 0000 0000 0000 000000
2016-12-01 12:35:02,0.22,1.86,0.00,18.11,22.67,26.49,14.87,49.35,1019.55,2044.02,2803.26,2664.30,3030.60,599.88,607.67,12.32,0000 0000 0000 0000 000000
2016-12-01 12:40:03,0.23,1.87,0.00,18.12,22.67,26.50,14.93,49.26,1019.55,2044.01,2799.53,2661.44,3027.38,600.23,608.00,12.37,0000 0000 0000 0000 000000
2016-12-01 12:45:05,0.23,1.88,0.00,18.10,22.67,26.52,14.94,49.22,1019.54,2044.01,2795.97,2658.64,3024.05,600.29,607.98,12.42,0000 0000 0000 0000 000000
2016-12-01 12:50:06,0.23,1.90,0.00,18.07,22.67,26.48,14.89,49.20,1019.54,2044.01,2792.17,2655.71,3020.71,599.72,607.59,12.48,0000 0000 0000 0000 000000
2016-12-01 12:55:07,0.24,1.91,0.00,18.07,22.67,26.48,14.89,49.25,1019.54,2044.01,2788.25,2652.78,3017.46,600.06,607.94,12.53,0000 0000 0000 0000 000000
2016-12-01 13:00:09,0.22,1.92,0.00,18.06,22.65,26.50,14.88,49.25,1019.41,2044.01,2784.60,2649.95,3014.22,600.10,607.87,12.58,0000 0000 0000 0000 000000